Regional Weather Roundup
Issued by NWS

Home | Current Version | Previous Version | Text Only | Print | Product List | Glossary Off
Versions: 1 2 3 4 5 6 7 8 9 10 11 12 13 14 15 16 17 18 19 20 21 22 23 24 25 26 27 28 29 30 31 32 33 34 35 36 37 38 39 40 41 42 43 44 45 46 47 48 49 50

000
ASUS45 KBOU 310310
RWRCO

WEATHER ROUNDUP FOR COLORADO
NATIONAL WEATHER SERVICE PUEBLO CO
900 PM MDT THU JUL 30 2015

NOTE: "FAIR" INDICATES FEW OR NO CLOUDS BELOW 12000 FEET WITH NO
SIGNIFICANT WEATHER AND/OR OBSTRUCTIONS TO VISIBILITY.

COZ001>005-013-030-031-310400-
...NORTHWEST COLORADO...

CITY           SKY/WX    TMP DP  RH WIND       PRES   REMARKS
CRAIG          PTCLDY    68  29  23 S5        30.31R
HAYDEN         PTCLDY    70  27  19 W5        30.35R
MEEKER         PTCLDY    71  34  25 SE5       30.33R
MOUNT WERNER   NOT AVBL
STEAMBOAT SPGS FAIR      67  37  32 SE5       30.37R
WALDEN         FAIR      61  32  33 NE7       30.48S
$$

COZ006>008-011-310400-
...WEST CENTRAL VALLEYS...

CITY           SKY/WX    TMP DP  RH WIND       PRES   REMARKS
GRAND JUNCTION CLEAR     82  23  11 N6        30.15S
MONTROSE       PTCLDY    77  35  21 CALM      30.26R
EAGLE          CLEAR     77  25  14 SE8       30.34R
RIFLE          PTCLDY    81  27  14 CALM      30.23R
DELTA          NOT AVBL
NUCLA          FAIR      81  28  15 NW3       30.31R
$$

COZ017>023-064>068-310400-
...SOUTHWEST COLORADO...

CITY           SKY/WX    TMP DP  RH WIND       PRES   REMARKS
DURANGO        CLOUDY    62  57  83 SE3       30.39R
CORTEZ         CLEAR     72  52  49 CALM      30.32R
PAGOSA SPRINGS LGT RAIN  68  49  50 CALM      30.48R
TELLURIDE      MOCLDY    67  29  23 SE6       30.55S
WOLF CREEK PAS NOT AVBL
$$

COZ009-010-012-014-032>034-037-058>063-310400-
...CENTRAL COLORADO...

CITY           SKY/WX    TMP DP  RH WIND       PRES   REMARKS
ASPEN          CLEAR     62  38  40 S8        30.43R
BUENA VISTA    CLOUDY    66  46  47 S6G16     30.50R
COPPER MTN     CLOUDY    59  36  41 SW7       30.80R
BERTHOUD PASS  FAIR      45  36  70 E20G30    30.85R
COTTONWOOD PAS LGT RAIN  57  50  77 S18       30.63F
GUNNISON       PTCLDY    72  45  37 SE13      30.44R
KREMMLING      CLEAR     64  21  19 E9        30.42R
LEADVILLE      PTCLDY    61  40  45 S9        30.61R
MONARCH PASS   CLOUDY    50  43  76 E15       30.89R
SALIDA         MOCLDY    72  47  40 E6        30.54R
NIWOT RIDGE    NOT AVBL
SUNLIGHT       CLEAR     63  23  22 NW6       30.71R
WILKERSON PASS PTCLDY    52  41  66 S6        30.78R
$$

COZ069>075-310400-
...SAN LUIS VALLEY/SANGRE DE CRISTO MOUNTAINS...

CITY           SKY/WX    TMP DP  RH WIND       PRES   REMARKS
ALAMOSA        MOCLDY    63  50  62 S7        30.45R
LA VETA PASS   MOCLDY    52  45  76 MISG      30.67R
SAGUACHE       PTCLDY    63  50  63 E5        30.48R
$$

COZ035-036-038>040-310400-
...NORTHERN COLORADO FRONT RANGE...

CITY           SKY/WX    TMP DP  RH WIND       PRES   REMARKS
DENVER INTL AP PTCLDY    76  50  40 E13       30.28R
DMNS CITY PARK NOT AVBL
AURORA         PTCLDY    76  53  44 SE18      30.31R
FRONT RANGE AP NOT AVBL
ERIE MUNI ARPT FAIR      74  45  34 NE7       30.27R
BOULDER MUN AP FAIR      75  41  29 N3        30.28R
CENTENNIAL     PTCLDY    75  53  46 S13       30.32R
BROOMFIELD     PTCLDY    77  41  27 NW7       30.31R
LOVELAND       CLEAR     79  48  34 E12       30.27R
LONGMONT       FAIR      73  52  47 N3        30.29R
$$

COZ041-046-047-076>085-087-088-310400-
...PIKES PEAK/PALMER DIVIDE AND SOUTHERN FOOTHILLS...

CITY           SKY/WX    TMP DP  RH WIND       PRES   REMARKS
COLO. SPRINGS  PTCLDY    69  53  56 SE3       30.41R
A. F. ACADEMY  CLEAR     68  53  58 SE9       30.42R
ELLICOTT       FAIR     N/A N/A N/A S8        30.38R
FALCON         FAIR      63  52  66 S5        30.46R
FORT CARSON    CLEAR     68  54  60 CALM      30.37R
LIMON          PTCLDY    67  58  72 E12       30.37R
MONUMENT HILL  CLEAR     63  50  63 S15       30.43R
TRINIDAD       MOCLDY    71  56  58 W12       30.34R
$$

COZ042>045-048>051-090-091-310400-
...NORTHEAST COLORADO...

CITY           SKY/WX    TMP DP  RH WIND       PRES   REMARKS
GREELEY ARPT   CLEAR     73  57  56 SE14G20   30.28R
AKRON          PTCLDY    68  56  65 S17G25    30.31R
BURLINGTON     LGT RAIN  69  63  81 NW6       30.33F
WRAY           FAIR      74  56  54 CALM      30.24R
STERLING       FAIR      72  55  56 S13       30.24R
HOLYOKE        NOT AVBL
FORT MORGAN    FAIR      69  54  58 SE12G17   30.29R
$$

COZ086-089-092>099-310400-
...SOUTHEAST COLORADO...

CITY           SKY/WX    TMP DP  RH WIND       PRES   REMARKS
PUEBLO         PTCLDY    80  51  36 SE6       30.27R
LA JUNTA       PTCLDY    78  60  53 SE9       30.25S
LAMAR          PTCLDY    72  63  73 E7        30.24R
SPRINGFIELD      N/A     71  62  73 S6        30.29R
$$




USA.gov is the U.S. government's official web portal to all federal, state and local government web resources and services.